STARLINK-36465, 67423

Orbit data source: Space-Track

STARLINK-36465, 67423 is a payload satellite owned by SpaceX/Seattle (US) in LEO that was launched on Mon, 12 Jan 2026 UTC via an FALCON 9 launch vehicle from the Air Force Eastern Test Range (AFETR). Payload-class satellites include a variety of spacecraft equipped with specific instruments for various scientific and technological missions. These include communications satellites like Starlink; space stations such as the ISS; scientific satellites like the Hubble; Earth observation satellites from companies like Planet Labs, Umbra, and HawkEye 360; GPS; miniature CubeSats for education and research; and military/defense satellites.

Loading next visibility...
Identifier
67423, 2026-005V
Orbit
LEO
Country
Flag of USUS
Related business
Manufacturer
SpaceX/Seattle
Mission
Operational Commercial Communications
Bus & Motor
STARLINK V2MO, Unknown motor
Mass
575 kg wet, ~530 kg dry
Launch date (UTC)
2026-01-12 (5 months ago)
Launch vehicle
FALCON 9
Launch site
Air Force Eastern Test Range (AFETR)
Object type
Payload
Rocket body
Debris
Shape & HBR
Box + 2 Pan, 17.7 m
Radar Cross Section
36.964 m², Large (>1 m²)

Expand to show TLE details & history
Last TLE update: 14 hours ago

TLE from 14 hours ago
0 STARLINK-36465
1 67423U 26005V   26171.27899880  .00010118  00000-0  37687-3 0  9998
2 67423  43.0037  18.8372 0001880 265.4504  94.6133 15.27566726 24383
Epoch: 2026-06-20T06:41Z
TLE epoch observation values (Epoch: 2026-06-20T06:41:45.496Z)
Latitude
-0.00001°
Longitude
9.90172°
Altitude
482.969 km
Speed
7.626 km/s
True Right ascension
01h 15m 20s
True Declination
0° 00' 00"
Sunlit
Object was in daylight at epoch
Visualization orbit readout
Latitude
Unknown
Longitude
Unknown
Altitude
Unknown
Speed
Unknown
Apparent Right ascension
Unknown
Apparent Declination
Unknown
Sunlit
N/A
Visualization observer readout
Local Sidereal Time
07:13:01
Azimuth
Unknown
Elevation
Unknown
Doppler factor
Unknown
Orbital elements
Apogee altitude
486.324 km
Perigee altitude
483.743 km
Semi-major axis
6,863.17 km
Eccentricity
0.00019
Inclination
43.0037°
RAAN
18.8372°
Arg. of periapsis
265.4504°
True anomaly
94.63477°
Mean anomaly
94.6133°
Eccentric anomaly
94.62404°
Mean motion
3.8173 °/min
Orbital period
94.31 mins
BSTAR
0.00037687
Loading maneuver chart data...
Computing Atmospheric mass density...
Loading historical data...
Loading historical data...
Loading historical data...
Loading historical data...
Loading historical data...
Loading historical data...
Loading historical data...

Documentation

Showing up to 5 results
|